Orbital elements:
2010 JK124
Epoch 2011 Aug. 27.0 TT = JDT 2455800.5 MPC
M 258.02128 (2000.0) P Q
n 0.00394078 Peri. 76.63988 +0.95912494 +0.09567249
a 39.6961300 Node 277.38537 -0.20364688 +0.88681368
e 0.0882371 Incl. 15.57785 +0.19648740 +0.45211532
P 250 H 5.3 G 0.15 U 4
Orbital elements: 2010 JK124 Epoch 2010 May 4.0 TT = JDT 2455320.5 MPC M 3.20593 (2000.0) P Q n 0.00335548 Peri. 317.67159 -0.52424286 +0.81256275 a 44.1874799 Node 279.18319 -0.69572670 -0.58120887 e 0.0878668 Incl. 14.95644 -0.49105374 -0.04402307 P 294 H 5.4 G 0.15 From 9 observations 2010 May 11-25.